| time (UTC) | temp F | wind direction | speed knots | gust knots | rain 1hr in | rain 24hr in | rain mn in | humidity % | barometer mb |
| 20260505122535 | 55 | 263 | 0.0 | 5.2 | 0.00 | 0.01 | 0.01 | 66 | 1002.2 |
| 20260505122033 | 55 | 227 | 0.0 | 5.2 | 0.00 | 0.01 | 0.01 | 65 | 1002.2 |
| 20260505121520 | 55 | 280 | 0.9 | 5.2 | 0.00 | 0.01 | 0.01 | 64 | 1002.1 |
| 20260505121029 | 55 | 266 | 0.9 | 5.2 | 0.00 | 0.01 | 0.01 | 63 | 1002.1 |
| 20260505120535 | 55 | 259 | 0.9 | 4.3 | 0.00 | 0.01 | 0.01 | 64 | 1002.1 |
| 20260505120026 | 55 | 275 | 0.9 | 4.3 | 0.00 | 0.01 | 0.01 | 63 | 1002.2 |
| 20260505114259 | 55 | 244 | 2.6 | 12.2 | 0.00 | 0.01 | 0.01 | 62 | 1002.1 |
| 20260505113758 | 55 | 239 | 2.6 | 12.2 | 0.00 | 0.01 | 0.01 | 62 | 1002.1 |
| 20260505113304 | 55 | 185 | 0.9 | 7.8 | 0.00 | 0.01 | 0.01 | 66 | 1002.1 |
| 20260505112754 | 55 | 182 | 0.9 | 7.8 | 0.00 | 0.01 | 0.01 | 67 | 1002.0 |
| 20260505112247 | 55 | 256 | 1.7 | 8.7 | 0.00 | 0.01 | 0.01 | 66 | 1002.0 |
| 20260505111755 | 55 | 224 | 1.7 | 8.7 | 0.00 | 0.01 | 0.01 | 66 | 1002.0 |
| 20260505110615 | 55 | 270 | 2.6 | 8.7 | 0.00 | 0.01 | 0.01 | 65 | 1001.9 |
| 20260505110120 | 55 | 155 | 1.7 | 7.8 | 0.00 | 0.01 | 0.01 | 65 | 1001.9 |
| 20260505101342 | 56 | 222 | 0.0 | 0.9 | 0.00 | 0.00 | 0.00 | 63 | 1002.2 |
| 20260505100834 | 56 | 277 | 0.0 | 0.0 | 0.00 | 0.00 | 0.00 | 62 | 1002.2 |
| 20260505100320 | 56 | 263 | 0.0 | 2.6 | 0.00 | 0.00 | 0.00 | 62 | 1002.2 |
| 20260505095815 | 57 | 278 | 0.0 | 0.0 | 0.00 | 0.00 | 0.00 | 63 | 1002.2 |
| 20260505095310 | 57 | 268 | 0.0 | 2.6 | 0.00 | 0.00 | 0.00 | 62 | 1002.2 |
| 20260505094149 | 57 | 272 | 0.0 | 4.3 | 0.00 | 0.00 | 0.00 | 61 | 1002.2 |
| 20260505093636 | 57 | 266 | 0.0 | 4.3 | 0.00 | 0.00 | 0.00 | 62 | 1002.2 |
| 20260505093138 | 57 | 263 | 0.0 | 3.5 | 0.00 | 0.00 | 0.00 | 62 | 1002.2 |
| 20260505092625 | 57 | 256 | 0.0 | 3.5 | 0.00 | 0.00 | 0.00 | 63 | 1002.1 |
| 20260505092115 | 56 | 258 | 0.0 | 1.7 | 0.00 | 0.00 | 0.00 | 64 | 1002.1 |
| 20260505091618 | 56 | 271 | 0.0 | 0.9 | 0.00 | 0.00 | 0.00 | 65 | 1002.1 |
| 20260505091116 | 56 | 260 | 0.0 | 0.0 | 0.00 | 0.00 | 0.00 | 64 | 1002.1 |
| 20260505090604 | 56 | 258 | 0.9 | 3.5 | 0.00 | 0.00 | 0.00 | 64 | 1002.2 |
| 20260505085437 | 56 | 256 | 0.9 | 6.1 | 0.00 | 0.00 | 0.00 | 64 | 1002.2 |
| 20260505084936 | 56 | 239 | 1.7 | 6.1 | 0.00 | 0.00 | 0.00 | 64 | 1002.2 |
| 20260505084435 | 56 | 247 | 1.7 | 6.1 | 0.00 | 0.00 | 0.00 | 63 | 1002.2 |
| 20260505083250 | 56 | 227 | 1.7 | 7.8 | 0.00 | 0.00 | 0.00 | 64 | 1002.3 |
| 20260505082751 | 57 | 257 | 1.7 | 7.8 | 0.00 | 0.00 | 0.00 | 63 | 1002.4 |
| 20260505082258 | 57 | 255 | 2.6 | 13.0 | 0.00 | 0.00 | 0.00 | 62 | 1002.3 |
| 20260505081744 | 57 | 281 | 3.5 | 13.0 | 0.00 | 0.00 | 0.00 | 62 | 1002.4 |
| 20260505080615 | 56 | 209 | 2.6 | 10.4 | 0.00 | 0.00 | 0.00 | 64 | 1002.5 |
| 20260505080057 | 56 | 270 | 3.5 | 12.2 | 0.00 | 0.00 | 0.00 | 64 | 1002.4 |
| 20260505075607 | 57 | 210 | 4.3 | 12.2 | 0.00 | 0.00 | 0.00 | 62 | 1002.5 |
| 20260505073748 | 58 | 167 | 4.3 | 13.9 | 0.00 | 0.00 | 0.00 | 54 | 1002.5 |
| 20260505073254 | 58 | 242 | 4.3 | 13.0 | 0.00 | 0.00 | 0.00 | 54 | 1002.6 |
| 20260505072755 | 58 | 175 | 3.5 | 12.2 | 0.00 | 0.00 | 0.00 | 53 | 1002.4 |
| 20260505072257 | 58 | 251 | 2.6 | 9.6 | 0.00 | 0.00 | 0.00 | 52 | 1002.4 |
| 20260505071737 | 58 | 253 | 3.5 | 13.9 | 0.00 | 0.00 | 0.00 | 51 | 1002.2 |
| 20260505071229 | 58 | 139 | 5.2 | 13.9 | 0.00 | 0.00 | 0.00 | 51 | 1002.2 |
| 20260505070116 | 58 | 288 | 6.1 | 13.9 | 0.00 | 0.00 | 0.00 | 53 | 1001.9 |
| 20260505065603 | 58 | 174 | 5.2 | 18.2 | 0.00 | 0.00 | 0.00 | 53 | 1002.0 |
| 20260505065059 | 58 | 204 | 6.1 | 18.2 | 0.00 | 0.00 | 0.00 | 53 | 1001.9 |
| 20260505064607 | 58 | 205 | 6.1 | 18.2 | 0.00 | 0.00 | 0.00 | 54 | 1001.8 |
| 20260505064116 | 58 | 216 | 6.1 | 18.2 | 0.00 | 0.00 | 0.00 | 54 | 1001.7 |
| 20260505063606 | 58 | 168 | 5.2 | 18.2 | 0.00 | 0.00 | 0.00 | 55 | 1001.8 |
| 20260505063107 | 58 | 197 | 7.0 | 18.2 | 0.00 | 0.00 | 0.00 | 54 | 1001.7 |
| 20260505062604 | 59 | 193 | 7.0 | 19.1 | 0.00 | 0.00 | 0.00 | 53 | 1001.7 |
| 20260505062056 | 58 | 199 | 6.1 | 19.1 | 0.00 | 0.00 | 0.00 | 53 | 1001.7 |
| 20260505060915 | 58 | 101 | 6.1 | 22.6 | 0.00 | 0.00 | 0.00 | 54 | 1001.7 |
| 20260505055743 | 59 | 213 | 7.8 | 22.6 | 0.00 | 0.00 | 0.00 | 54 | 1001.7 |
| 20260505055246 | 59 | 266 | 7.8 | 16.5 | 0.00 | 0.00 | 0.00 | 54 | 1001.8 |
| 20260505054749 | 59 | 234 | 7.0 | 16.5 | 0.00 | 0.00 | 0.00 | 54 | 1001.7 |
| 20260505054237 | 59 | 173 | 7.0 | 16.5 | 0.00 | 0.00 | 0.00 | 54 | 1001.8 |
| 20260505053719 | 59 | 178 | 7.0 | 16.5 | 0.00 | 0.00 | 0.00 | 54 | 1001.8 |
| 20260505053221 | 59 | 163 | 7.0 | 16.5 | 0.00 | 0.00 | 0.00 | 54 | 1001.8 |
| 20260505052730 | 60 | 179 | 7.8 | 24.3 | 0.00 | 0.00 | 0.00 | 54 | 1001.7 |
| 20260505051556 | 61 | 266 | 7.8 | 24.3 | 0.00 | 0.00 | 0.00 | 52 | 1001.7 |
| 20260505051105 | 61 | 171 | 7.0 | 24.3 | 0.00 | 0.00 | 0.00 | 51 | 1001.6 |
| 20260505050603 | 61 | 213 | 5.2 | 19.1 | 0.00 | 0.00 | 0.00 | 50 | 1001.6 |
| 20260505041411 | 64 | 181 | 3.5 | 12.2 | 0.00 | 0.00 | 0.00 | 39 | 1000.9 |
| 20260505040857 | 64 | 261 | 3.5 | 9.6 | 0.00 | 0.00 | 0.00 | 39 | 1000.8 |
| 20260505040406 | 64 | 223 | 3.5 | 9.6 | 0.00 | 0.00 | 0.00 | 40 | 1000.6 |
| 20260505035851 | 64 | 162 | 3.5 | 9.6 | 0.00 | 0.00 | 0.00 | 40 | 1000.6 |
| 20260505034108 | 64 | 275 | 3.5 | 9.6 | 0.00 | 0.00 | 0.00 | 41 | 1000.2 |
| 20260505033605 | 64 | 246 | 3.5 | 9.6 | 0.00 | 0.00 | 0.00 | 41 | 1000.2 |
| 20260505033109 | 64 | 260 | 3.5 | 9.6 | 0.00 | 0.00 | 0.00 | 41 | 1000.2 |
| 20260505032604 | 64 | 265 | 2.6 | 9.6 | 0.00 | 0.00 | 0.00 | 40 | 1000.3 |
| 20260505032054 | 65 | 277 | 1.7 | 7.0 | 0.00 | 0.00 | 0.00 | 40 | 1000.4 |
| 20260505030918 | 65 | 239 | 1.7 | 8.7 | 0.00 | 0.00 | 0.00 | 39 | 1000.2 |
| 20260505030418 | 65 | 271 | 2.6 | 10.4 | 0.00 | 0.00 | 0.00 | 39 | 1000.2 |
| 20260505025253 | 66 | 173 | 4.3 | 10.4 | 0.00 | 0.00 | 0.00 | 38 | 1000.0 |
| 20260505024758 | 66 | 208 | 3.5 | 10.4 | 0.00 | 0.00 | 0.00 | 37 | 999.9 |
| 20260505024257 | 66 | 232 | 2.6 | 10.4 | 0.00 | 0.00 | 0.00 | 36 | 999.8 |
| 20260505023116 | 66 | 229 | 3.5 | 9.6 | 0.00 | 0.00 | 0.00 | 36 | 999.6 |
| 20260505022559 | 66 | 140 | 3.5 | 9.6 | 0.00 | 0.00 | 0.00 | 36 | 999.6 |
| 20260505022102 | 67 | 180 | 3.5 | 9.6 | 0.00 | 0.00 | 0.00 | 36 | 999.6 |
| 20260505020948 | 67 | 309 | 0.9 | 8.7 | 0.00 | 0.00 | 0.00 | 35 | 999.5 |
| 20260505020447 | 67 | 227 | 0.0 | 1.7 | 0.00 | 0.00 | 0.00 | 34 | 999.3 |
| 20260505015340 | 68 | 253 | 0.0 | 0.0 | 0.00 | 0.00 | 0.00 | 34 | 999.3 |
| 20260505014823 | 68 | 255 | 0.0 | 0.0 | 0.00 | 0.00 | 0.00 | 34 | 999.3 |
| 20260505013646 | 68 | 265 | 0.0 | 0.0 | 0.00 | 0.00 | 0.00 | 33 | 999.5 |
| 20260505013139 | 68 | 270 | 0.0 | 0.0 | 0.00 | 0.00 | 0.00 | 33 | 999.5 |
| 20260505012630 | 68 | 261 | 0.0 | 0.0 | 0.00 | 0.00 | 0.00 | 33 | 999.5 |
| 20260505012128 | 68 | 274 | 0.0 | 0.0 | 0.00 | 0.00 | 0.00 | 33 | 999.5 |
| 20260505011009 | 69 | 275 | 0.0 | 0.0 | 0.00 | 0.00 | 0.00 | 33 | 999.6 |
| 20260505010451 | 69 | 119 | 0.0 | 3.5 | 0.00 | 0.00 | 0.00 | 32 | 999.7 |
| 20260505005959 | 69 | 306 | 0.0 | 1.7 | 0.00 | 0.00 | 0.00 | 32 | 999.8 |
| 20260505004227 | 69 | 327 | 0.9 | 5.2 | 0.00 | 0.00 | 0.00 | 32 | 999.8 |
| 20260505003735 | 69 | 83 | 1.7 | 5.2 | 0.00 | 0.00 | 0.00 | 32 | 999.8 |
| 20260505003227 | 69 | 96 | 0.9 | 4.3 | 0.00 | 0.00 | 0.00 | 31 | 999.9 |
| 20260505002714 | 69 | 60 | 0.9 | 7.0 | 0.00 | 0.00 | 0.00 | 32 | 999.9 |
| 20260505001546 | 69 | 141 | 2.6 | 7.8 | 0.00 | 0.00 | 0.00 | 33 | 1000.0 |
| 20260504235824 | 68 | 114 | 1.7 | 7.0 | 0.00 | 0.00 | 0.00 | 35 | 1000.2 |
| 20260504234702 | 68 | 64 | 2.6 | 7.8 | 0.00 | 0.00 | 0.00 | 34 | 1000.4 |
| 20260504234207 | 69 | 159 | 2.6 | 7.8 | 0.00 | 0.00 | 0.00 | 34 | 1000.4 |
| 20260504233656 | 70 | 83 | 1.7 | 7.8 | 0.00 | 0.00 | 0.00 | 33 | 1000.4 |
| 20260504233156 | 70 | 61 | 0.9 | 7.0 | 0.00 | 0.00 | 0.00 | 32 | 1000.5 |
| 20260504232639 | 71 | 121 | 0.9 | 7.0 | 0.00 | 0.00 | 0.00 | 32 | 1000.4 |
| 20260504232142 | 72 | 114 | 0.9 | 5.2 | 0.00 | 0.00 | 0.00 | 29 | 1000.4 |
| 20260504231626 | 72 | 239 | 0.0 | 3.5 | 0.00 | 0.00 | 0.00 | 28 | 1000.2 |
| 20260504231126 | 72 | 64 | 0.9 | 6.1 | 0.00 | 0.00 | 0.00 | 29 | 1000.2 |
| 20260504230618 | 71 | 334 | 0.9 | 6.1 | 0.00 | 0.00 | 0.00 | 31 | 1000.3 |
| 20260504225502 | 71 | 268 | 0.9 | 21.7 | 0.00 | 0.00 | 0.00 | 32 | 1000.3 |
| 20260504225008 | 70 | 199 | 1.7 | 21.7 | 0.00 | 0.00 | 0.00 | 33 | 1000.3 |
| 20260504224506 | 70 | 168 | 3.5 | 21.7 | 0.00 | 0.00 | 0.00 | 33 | 1000.2 |
| 20260504224015 | 71 | 104 | 3.5 | 21.7 | 0.00 | 0.00 | 0.00 | 32 | 1000.3 |
| 20260504223513 | 72 | 178 | 1.7 | 21.7 | 0.00 | 0.00 | 0.00 | 28 | 1000.2 |
| 20260504223020 | 72 | 215 | 0.9 | 5.2 | 0.00 | 0.00 | 0.00 | 25 | 1000.2 |
| 20260504221847 | 71 | 262 | 1.7 | 7.0 | 0.00 | 0.00 | 0.00 | 27 | 1000.1 |
| 20260504221342 | 71 | 258 | 2.6 | 7.0 | 0.00 | 0.00 | 0.00 | 27 | 1000.0 |
| 20260504220824 | 71 | 270 | 2.6 | 10.4 | 0.00 | 0.00 | 0.00 | 27 | 1000.0 |
| 20260504220305 | 71 | 249 | 3.5 | 10.4 | 0.00 | 0.00 | 0.00 | 27 | 1000.0 |
| 20260504215814 | 71 | 270 | 4.3 | 10.4 | 0.00 | 0.00 | 0.00 | 28 | 1000.0 |
| 20260504215307 | 71 | 257 | 4.3 | 8.7 | 0.00 | 0.00 | 0.00 | 27 | 1000.0 |
| 20260504214139 | 73 | 252 | 0.9 | 7.0 | 0.00 | 0.00 | 0.00 | 25 | 1000.1 |
| 20260504213621 | 73 | 262 | 0.0 | 6.1 | 0.00 | 0.00 | 0.00 | 26 | 1000.1 |
| 20260504213112 | 73 | 286 | 0.9 | 6.1 | 0.00 | 0.00 | 0.00 | 28 | 1000.1 |
| 20260504212601 | 73 | 303 | 0.9 | 6.1 | 0.00 | 0.00 | 0.00 | 28 | 1000.1 |
| 20260504212043 | 73 | 0 | 0.9 | 5.2 | 0.00 | 0.00 | 0.00 | 27 | 1000.2 |
| 20260504211527 | 74 | 310 | 0.9 | 5.2 | 0.00 | 0.00 | 0.00 | 26 | 1000.2 |
| 20260504211038 | 74 | 304 | 0.0 | 2.6 | 0.00 | 0.00 | 0.00 | 27 | 1000.3 |
| 20260504205250 | 73 | 164 | 0.0 | 5.2 | 0.00 | 0.00 | 0.00 | 28 | 1000.5 |
| 20260504204731 | 73 | 286 | 0.9 | 5.2 | 0.00 | 0.00 | 0.00 | 28 | 1000.5 |
| 20260504203542 | 73 | 320 | 0.9 | 5.2 | 0.00 | 0.00 | 0.00 | 27 | 1000.6 |
| 20260504203041 | 73 | 325 | 0.9 | 4.3 | 0.00 | 0.00 | 0.00 | 26 | 1000.6 |
| 20260504201910 | 73 | 343 | 1.7 | 7.8 | 0.00 | 0.00 | 0.00 | 27 | 1000.6 |
| 20260504201358 | 73 | 4 | 2.6 | 7.0 | 0.00 | 0.00 | 0.00 | 28 | 1000.7 |
| 20260504200854 | 73 | 285 | 1.7 | 7.0 | 0.00 | 0.00 | 0.00 | 26 | 1000.7 |
| 20260504195727 | 74 | 340 | 1.7 | 7.0 | 0.00 | 0.00 | 0.00 | 27 | 1000.9 |
| 20260504195210 | 74 | 337 | 1.7 | 6.1 | 0.00 | 0.00 | 0.00 | 27 | 1000.8 |
| 20260504194704 | 74 | 329 | 2.6 | 7.0 | 0.00 | 0.00 | 0.00 | 28 | 1000.8 |
| 20260504193525 | 74 | 328 | 2.6 | 9.6 | 0.00 | 0.00 | 0.00 | 27 | 1001.0 |
| 20260504193028 | 74 | 47 | 1.7 | 9.6 | 0.00 | 0.00 | 0.00 | 27 | 1001.1 |
| 20260504191856 | 74 | 318 | 1.7 | 9.6 | 0.00 | 0.00 | 0.00 | 28 | 1001.2 |
| 20260504191349 | 74 | 308 | 1.7 | 9.6 | 0.00 | 0.00 | 0.00 | 28 | 1001.2 |
| 20260504190839 | 76 | 230 | 0.0 | 4.3 | 0.00 | 0.00 | 0.00 | 27 | 1001.3 |
| 20260504185711 | 74 | 273 | 0.0 | 3.5 | 0.00 | 0.00 | 0.00 | 27 | 1001.4 |
| 20260504185218 | 73 | 265 | 0.0 | 3.5 | 0.00 | 0.00 | 0.00 | 27 | 1001.5 |
| 20260504184659 | 73 | 291 | 0.0 | 0.9 | 0.00 | 0.00 | 0.00 | 26 | 1001.6 |
| 20260504184153 | 73 | 321 | 0.0 | 0.9 | 0.00 | 0.00 | 0.00 | 26 | 1001.7 |
| 20260504183007 | 74 | 77 | 0.0 | 3.5 | 0.00 | 0.00 | 0.00 | 26 | 1001.7 |
| 20260504182453 | 75 | 284 | 0.9 | 0.0 | 0.00 | 0.00 | 0.00 | 26 | 1001.7 |
| 20260504181307 | 74 | 182 | 0.0 | 4.3 | 0.00 | 0.00 | 0.00 | 27 | 1001.9 |
| 20260504180812 | 74 | 328 | 0.9 | 5.2 | 0.00 | 0.00 | 0.00 | 28 | 1001.9 |
| 20260504180312 | 74 | 326 | 0.9 | 5.2 | 0.00 | 0.00 | 0.00 | 26 | 1002.0 |
| 20260504175812 | 73 | 263 | 0.9 | 5.2 | 0.00 | 0.00 | 0.00 | 28 | 1002.1 |
| 20260504175300 | 73 | 254 | 1.7 | 5.2 | 0.00 | 0.00 | 0.00 | 27 | 1002.2 |
| 20260504174809 | 72 | 293 | 0.9 | 6.1 | 0.00 | 0.00 | 0.00 | 28 | 1002.1 |
| 20260504174310 | 73 | 113 | 0.9 | 7.0 | 0.00 | 0.00 | 0.00 | 28 | 1002.2 |
| 20260504173810 | 72 | 306 | 1.7 | 7.0 | 0.00 | 0.00 | 0.00 | 27 | 1002.4 |
| 20260504173306 | 72 | 266 | 3.5 | 7.8 | 0.00 | 0.00 | 0.00 | 27 | 1002.4 |
| 20260504172749 | 72 | 179 | 3.5 | 7.8 | 0.00 | 0.00 | 0.00 | 29 | 1002.4 |
| 20260504171028 | 72 | 172 | 3.5 | 12.2 | 0.00 | 0.00 | 0.00 | 31 | 1002.5 |
| 20260504170511 | 72 | 157 | 3.5 | 12.2 | 0.00 | 0.00 | 0.00 | 29 | 1002.6 |
| 20260504150225 | 66 | 261 | 3.5 | 10.4 | 0.00 | 0.00 | 0.00 | 37 | 1003.3 |
| 20260504141245 | 64 | 263 | 2.6 | 9.6 | 0.00 | 0.00 | 0.00 | 40 | 1003.4 |
| 20260504140727 | 63 | 156 | 1.7 | 8.7 | 0.00 | 0.00 | 0.00 | 42 | 1003.5 |
| 20260504140222 | 62 | 270 | 2.6 | 8.7 | 0.00 | 0.00 | 0.00 | 43 | 1003.5 |
| 20260504130523 | 60 | 259 | 1.7 | 6.1 | 0.00 | 0.00 | 0.00 | 46 | 1003.7 |